Back to Top

Language: 

My Weather Underground Personal Weather Station Historical Data with Graphs...

Delerius Weather Station Historical Data
Daily Summary for May 9, 2017 Units:  English    Metric   Both
« Previous Day
Next Day »
Daily Weekly Monthly Yearly Custom
  High: Low: Average:
Temperature: 55.2 °F 42.1 °F 47.5 °F
Dew Point: 39.9 °F 36.1 °F 37.9 °F
Humidity: 82 % 55 % 70 %
Wind Speed: 6.0 mph 0.0 mph 2.3 mph
Wind Gust: 13.0 mph - -
Wind:- - East
Pressure: 30.41 in 29.98 in -
Precipitation: 0.00 in    
Historical Graphs
 
 
Tabular Data for May 9, 2017
Time Temperature Dew Point Pressure Wind Wind Speed Wind Gust Humidity Rainfall Rate (Hourly) solar Conditions
00:02 44.8 °F 36.7 °F 30.41 in ENE 2.0 mph 8.0 mph 73 % 0.00 in 0 W/m2
00:07 44.6 °F 36.5 °F 30.41 in ENE 4.0 mph 8.0 mph 73 % 0.00 in 0 W/m2
00:12 44.6 °F 36.5 °F 30.41 in ENE 3.0 mph 8.0 mph 73 % 0.00 in 0 W/m2
00:17 44.6 °F 36.5 °F 30.41 in NE 2.0 mph 8.0 mph 73 % 0.00 in 0 W/m2
00:22 44.6 °F 36.5 °F 30.41 in NNE 2.0 mph 8.0 mph 73 % 0.00 in 0 W/m2
00:27 44.6 °F 36.8 °F 30.41 in NNE 3.0 mph 9.0 mph 74 % 0.00 in 0 W/m2
00:32 44.6 °F 36.8 °F 30.41 in NNE 2.0 mph 9.0 mph 74 % 0.00 in 0 W/m2
00:37 44.6 °F 36.8 °F 30.41 in Calm   5.0 mph 74 % 0.00 in 0 W/m2
00:42 44.6 °F 36.8 °F 30.41 in North 1.0 mph 6.0 mph 74 % 0.00 in 0 W/m2
00:47 44.4 °F 36.6 °F 30.41 in NNE 3.0 mph 10.0 mph 74 % 0.00 in 0 W/m2
00:52 44.4 °F 36.6 °F 30.41 in NE 5.0 mph 12.0 mph 74 % 0.00 in 0 W/m2
00:57 44.4 °F 36.6 °F 30.41 in NE 4.0 mph 12.0 mph 74 % 0.00 in 0 W/m2
01:02 44.4 °F 36.6 °F 30.40 in NNE 5.0 mph 11.0 mph 74 % 0.00 in 0 W/m2
01:07 44.4 °F 36.6 °F 30.40 in NNE 6.0 mph 13.0 mph 74 % 0.00 in 0 W/m2
01:12 44.4 °F 36.6 °F 30.40 in NNE 6.0 mph 13.0 mph 74 % 0.00 in 0 W/m2
01:13 44.4 °F 36.6 °F 30.40 in NE 5.0 mph 13.0 mph 74 % 0.00 in 0 W/m2
01:18 44.4 °F 36.6 °F 30.40 in NE 4.0 mph 11.0 mph 74 % 0.00 in 0 W/m2
01:23 44.4 °F 36.6 °F 30.40 in NE 3.0 mph 8.0 mph 74 % 0.00 in 0 W/m2
01:28 44.4 °F 36.6 °F 30.40 in NE 3.0 mph 10.0 mph 74 % 0.00 in 0 W/m2
01:33 44.2 °F 36.1 °F 30.40 in NNE 3.0 mph 10.0 mph 73 % 0.00 in 0 W/m2
01:38 44.2 °F 36.1 °F 30.40 in NE 3.0 mph 9.0 mph 73 % 0.00 in 0 W/m2
01:43 44.2 °F 36.1 °F 30.40 in NE 3.0 mph 12.0 mph 73 % 0.00 in 0 W/m2
01:48 44.2 °F 36.5 °F 30.40 in NE 4.0 mph 12.0 mph 74 % 0.00 in 0 W/m2
02:03 44.2 °F 36.5 °F 30.39 in NE 2.0 mph 8.0 mph 74 % 0.00 in 0 W/m2
02:08 44.2 °F 36.5 °F 30.39 in NE 3.0 mph 9.0 mph 74 % 0.00 in 0 W/m2
02:14 44.2 °F 36.5 °F 30.39 in NE 3.0 mph 9.0 mph 74 % 0.00 in 0 W/m2
02:19 44.2 °F 36.5 °F 30.39 in NNE 2.0 mph 8.0 mph 74 % 0.00 in 0 W/m2
02:24 44.2 °F 36.5 °F 30.39 in NNE 4.0 mph 9.0 mph 74 % 0.00 in 0 W/m2
02:29 44.2 °F 36.8 °F 30.39 in NNE 5.0 mph 9.0 mph 75 % 0.00 in 0 W/m2
02:34 44.2 °F 36.8 °F 30.38 in NNE 5.0 mph 10.0 mph 75 % 0.00 in 0 W/m2
02:39 44.2 °F 36.8 °F 30.38 in NNE 4.0 mph 10.0 mph 75 % 0.00 in 0 W/m2
02:44 44.2 °F 36.8 °F 30.38 in NNE 3.0 mph 9.0 mph 75 % 0.00 in 0 W/m2
02:49 44.2 °F 36.8 °F 30.38 in NE 2.0 mph 9.0 mph 75 % 0.00 in 0 W/m2
02:54 44.1 °F 36.6 °F 30.38 in NE 3.0 mph 8.0 mph 75 % 0.00 in 0 W/m2
02:59 44.1 °F 36.6 °F 30.38 in NE 4.0 mph 8.0 mph 75 % 0.00 in 0 W/m2
03:04 44.1 °F 36.6 °F 30.38 in NE 3.0 mph 8.0 mph 75 % 0.00 in 0 W/m2
03:09 44.1 °F 36.6 °F 30.38 in ENE 2.0 mph 6.0 mph 75 % 0.00 in 0 W/m2
03:14 44.1 °F 36.6 °F 30.38 in NNE 3.0 mph 8.0 mph 75 % 0.00 in 0 W/m2
03:19 44.1 °F 36.6 °F 30.38 in NNE 3.0 mph 8.0 mph 75 % 0.00 in 0 W/m2
03:24 44.1 °F 36.6 °F 30.37 in NE 2.0 mph 7.0 mph 75 % 0.00 in 0 W/m2
03:29 44.1 °F 36.6 °F 30.37 in NNE 2.0 mph 7.0 mph 75 % 0.00 in 0 W/m2
03:34 44.1 °F 36.6 °F 30.37 in NNE 2.0 mph 7.0 mph 75 % 0.00 in 0 W/m2
03:39 43.9 °F 36.5 °F 30.37 in NNE 3.0 mph 9.0 mph 75 % 0.00 in 0 W/m2
03:44 43.9 °F 36.8 °F 30.37 in NE 4.0 mph 9.0 mph 76 % 0.00 in 0 W/m2
03:49 43.9 °F 36.8 °F 30.37 in NE 2.0 mph 8.0 mph 76 % 0.00 in 0 W/m2
03:54 43.9 °F 36.8 °F 30.36 in NNE 1.0 mph 5.0 mph 76 % 0.00 in 0 W/m2
03:59 43.9 °F 36.8 °F 30.36 in NNE 2.0 mph 8.0 mph 76 % 0.00 in 0 W/m2
04:04 43.9 °F 36.5 °F 30.36 in North 3.0 mph 8.0 mph 75 % 0.00 in 0 W/m2
04:09 43.9 °F 36.5 °F 30.36 in NNE 2.0 mph 6.0 mph 75 % 0.00 in 0 W/m2
04:14 43.9 °F 36.5 °F 30.36 in NE 3.0 mph 10.0 mph 75 % 0.00 in 0 W/m2
04:19 43.9 °F 36.5 °F 30.36 in NE 4.0 mph 10.0 mph 75 % 0.00 in 0 W/m2
04:24 43.9 °F 36.5 °F 30.36 in NE 3.0 mph 9.0 mph 75 % 0.00 in 0 W/m2
04:29 43.9 °F 36.5 °F 30.36 in NNE 2.0 mph 7.0 mph 75 % 0.00 in 0 W/m2
04:34 43.7 °F 36.3 °F 30.36 in NE 3.0 mph 8.0 mph 75 % 0.00 in 0 W/m2
04:39 43.7 °F 36.3 °F 30.36 in NE 2.0 mph 8.0 mph 75 % 0.00 in 0 W/m2
04:44 43.7 °F 36.3 °F 30.36 in NE 2.0 mph 7.0 mph 75 % 0.00 in 0 W/m2
04:49 43.7 °F 36.3 °F 30.35 in NE 2.0 mph 7.0 mph 75 % 0.00 in 0 W/m2
04:54 43.7 °F 36.6 °F 30.35 in NE 2.0 mph 5.0 mph 76 % 0.00 in 0 W/m2
05:00 43.7 °F 36.6 °F 30.35 in NE 2.0 mph 7.0 mph 76 % 0.00 in 0 W/m2
05:05 43.7 °F 36.6 °F 30.35 in NE 2.0 mph 7.0 mph 76 % 0.00 in 0 W/m2
05:10 43.5 °F 36.1 °F 30.35 in NE 3.0 mph 12.0 mph 75 % 0.00 in 0 W/m2
05:15 43.5 °F 36.1 °F 30.35 in NE 4.0 mph 12.0 mph 75 % 0.00 in 0 W/m2
05:20 43.5 °F 36.1 °F 30.35 in ENE 4.0 mph 10.0 mph 75 % 0.00 in 0 W/m2
05:25 43.5 °F 36.5 °F 30.35 in NE 4.0 mph 10.0 mph 76 % 0.00 in 0 W/m2
05:30 43.5 °F 36.5 °F 30.35 in NE 4.0 mph 9.0 mph 76 % 0.00 in 0 W/m2
05:35 43.5 °F 36.5 °F 30.34 in NE 3.0 mph 9.0 mph 76 % 0.00 in 5 W/m2
05:40 43.5 °F 36.5 °F 30.34 in NE 2.0 mph 9.0 mph 76 % 0.00 in 7 W/m2
05:45 43.5 °F 36.5 °F 30.34 in NE 1.0 mph 9.0 mph 76 % 0.00 in 9 W/m2
05:50 43.5 °F 36.5 °F 30.34 in NE 2.0 mph 8.0 mph 76 % 0.00 in 9 W/m2
05:55 43.5 °F 36.1 °F 30.34 in NE 4.0 mph 10.0 mph 75 % 0.00 in 12 W/m2
06:00 43.5 °F 36.1 °F 30.34 in ENE 4.0 mph 10.0 mph 75 % 0.00 in 12 W/m2
06:01 43.5 °F 36.1 °F 30.34 in ENE 3.0 mph 7.0 mph 75 % 0.00 in 12 W/m2
06:06 43.5 °F 36.5 °F 30.34 in ENE 3.0 mph 7.0 mph 76 % 0.00 in 12 W/m2
06:11 43.5 °F 36.5 °F 30.34 in ENE 3.0 mph 7.0 mph 76 % 0.00 in 16 W/m2
06:12 43.5 °F 36.5 °F 30.34 in ENE 3.0 mph 7.0 mph 76 % 0.00 in 18 W/m2
06:17 43.5 °F 36.5 °F 30.34 in NE 3.0 mph 7.0 mph 76 % 0.00 in 21 W/m2
06:22 43.5 °F 36.5 °F 30.33 in NE 2.0 mph 6.0 mph 76 % 0.00 in 28 W/m2
06:27 43.5 °F 36.8 °F 30.33 in NE 2.0 mph 8.0 mph 77 % 0.00 in 28 W/m2
06:32 43.5 °F 36.8 °F 30.33 in ENE 3.0 mph 8.0 mph 77 % 0.00 in 32 W/m2
06:37 43.5 °F 36.8 °F 30.33 in ENE 3.0 mph 8.0 mph 77 % 0.00 in 33 W/m2
06:42 43.5 °F 36.8 °F 30.33 in ENE 3.0 mph 10.0 mph 77 % 0.00 in 33 W/m2
06:47 43.5 °F 36.8 °F 30.33 in ENE 5.0 mph 10.0 mph 77 % 0.00 in 33 W/m2
06:52 43.7 °F 37.0 °F 30.33 in ENE 5.0 mph 10.0 mph 77 % 0.00 in 35 W/m2
06:57 43.7 °F 37.0 °F 30.33 in ENE 4.0 mph 10.0 mph 77 % 0.00 in 44 W/m2
07:02 43.7 °F 37.0 °F 30.33 in NE 4.0 mph 12.0 mph 77 % 0.00 in 63 W/m2
07:07 43.9 °F 36.8 °F 30.33 in NE 3.0 mph 12.0 mph 76 % 0.00 in 67 W/m2
07:13 43.9 °F 36.8 °F 30.33 in NE 2.0 mph 9.0 mph 76 % 0.00 in 53 W/m2
07:18 44.1 °F 37.3 °F 30.33 in NE 1.0 mph 7.0 mph 77 % 0.00 in 51 W/m2
07:23 44.1 °F 37.0 °F 30.33 in ENE 1.0 mph 6.0 mph 76 % 0.00 in 42 W/m2
07:28 44.1 °F 37.0 °F 30.33 in ENE 2.0 mph 8.0 mph 76 % 0.00 in 46 W/m2
07:33 44.1 °F 37.0 °F 30.33 in NE 4.0 mph 8.0 mph 76 % 0.00 in 49 W/m2
07:38 44.1 °F 37.0 °F 30.32 in NNE 4.0 mph 9.0 mph 76 % 0.00 in 56 W/m2
07:43 44.1 °F 37.0 °F 30.32 in NNE 3.0 mph 9.0 mph 76 % 0.00 in 60 W/m2
07:48 44.1 °F 37.0 °F 30.32 in NNE 4.0 mph 8.0 mph 76 % 0.00 in 65 W/m2
07:53 44.1 °F 37.0 °F 30.32 in NE 5.0 mph 10.0 mph 76 % 0.00 in 74 W/m2
07:58 44.1 °F 37.0 °F 30.32 in NE 4.0 mph 10.0 mph 76 % 0.00 in 70 W/m2
08:03 44.2 °F 37.5 °F 30.32 in NE 2.0 mph 7.0 mph 77 % 0.00 in 72 W/m2
08:08 44.2 °F 37.2 °F 30.32 in NE 2.0 mph 7.0 mph 76 % 0.00 in 86 W/m2
08:13 44.2 °F 37.2 °F 30.32 in NE 3.0 mph 9.0 mph 76 % 0.00 in 77 W/m2
08:18 44.2 °F 37.2 °F 30.31 in NNE 5.0 mph 9.0 mph 76 % 0.00 in 91 W/m2
08:23 44.2 °F 37.2 °F 30.31 in NE 4.0 mph 9.0 mph 76 % 0.00 in 93 W/m2
08:28 44.2 °F 37.2 °F 30.31 in ENE 4.0 mph 8.0 mph 76 % 0.00 in 93 W/m2
08:33 44.4 °F 37.3 °F 30.31 in ENE 4.0 mph 8.0 mph 76 % 0.00 in 91 W/m2
08:38 44.4 °F 37.3 °F 30.32 in ENE 4.0 mph 8.0 mph 76 % 0.00 in 88 W/m2
08:43 44.4 °F 37.3 °F 30.31 in NE 4.0 mph 9.0 mph 76 % 0.00 in 97 W/m2
08:48 44.4 °F 37.3 °F 30.31 in NE 3.0 mph 9.0 mph 76 % 0.00 in 98 W/m2
08:53 44.6 °F 37.5 °F 30.31 in ENE 3.0 mph 7.0 mph 76 % 0.00 in 97 W/m2
08:58 44.6 °F 37.5 °F 30.31 in NE 3.0 mph 10.0 mph 76 % 0.00 in 97 W/m2
09:04 44.6 °F 37.5 °F 30.31 in NE 4.0 mph 10.0 mph 76 % 0.00 in 113 W/m2
09:09 44.6 °F 37.5 °F 30.30 in ENE 3.0 mph 8.0 mph 76 % 0.00 in 121 W/m2
09:14 44.8 °F 37.7 °F 30.30 in ENE 3.0 mph 7.0 mph 76 % 0.00 in 120 W/m2
09:19 44.8 °F 37.7 °F 30.30 in ENE 3.0 mph 7.0 mph 76 % 0.00 in 116 W/m2
09:24 45.0 °F 37.5 °F 30.30 in ENE 2.0 mph 7.0 mph 75 % 0.00 in 118 W/m2
09:29 45.0 °F 37.5 °F 30.30 in NE 3.0 mph 8.0 mph 75 % 0.00 in 137 W/m2
09:34 45.0 °F 37.5 °F 30.29 in NE 4.0 mph 9.0 mph 75 % 0.00 in 151 W/m2
09:39 45.1 °F 37.7 °F 30.29 in ENE 3.0 mph 9.0 mph 75 % 0.00 in 171 W/m2
09:44 45.1 °F 37.7 °F 30.29 in ENE 4.0 mph 9.0 mph 75 % 0.00 in 181 W/m2
09:49 45.3 °F 37.9 °F 30.29 in ENE 3.0 mph 9.0 mph 75 % 0.00 in 186 W/m2
09:54 45.5 °F 37.7 °F 30.29 in ENE 3.0 mph 8.0 mph 74 % 0.00 in 176 W/m2
09:59 45.7 °F 38.2 °F 30.29 in East 3.0 mph 8.0 mph 75 % 0.00 in 146 W/m2
10:04 45.7 °F 37.9 °F 30.30 in East 3.0 mph 7.0 mph 74 % 0.00 in 135 W/m2
10:09 45.7 °F 37.9 °F 30.29 in ENE 3.0 mph 8.0 mph 74 % 0.00 in 123 W/m2
10:14 45.7 °F 37.9 °F 30.29 in NNE 2.0 mph 8.0 mph 74 % 0.00 in 141 W/m2
10:19 45.7 °F 38.2 °F 30.29 in NNE 1.0 mph 6.0 mph 75 % 0.00 in 148 W/m2
10:24 45.7 °F 38.2 °F 30.29 in NNE 1.0 mph 6.0 mph 75 % 0.00 in 155 W/m2
10:29 45.9 °F 38.0 °F 30.28 in NNE 1.0 mph 5.0 mph 74 % 0.00 in 155 W/m2
10:34 45.9 °F 37.7 °F 30.28 in NNE 2.0 mph 6.0 mph 73 % 0.00 in 179 W/m2
10:39 46.0 °F 37.9 °F 30.28 in NE 2.0 mph 6.0 mph 73 % 0.00 in 192 W/m2
10:44 46.2 °F 38.0 °F 30.28 in NE 3.0 mph 9.0 mph 73 % 0.00 in 213 W/m2
10:49 46.4 °F 38.2 °F 30.28 in ENE 3.0 mph 9.0 mph 73 % 0.00 in 202 W/m2
10:54 46.4 °F 38.2 °F 30.28 in ENE 2.0 mph 6.0 mph 73 % 0.00 in 193 W/m2
10:59 46.6 °F 38.0 °F 30.28 in ENE 1.0 mph 6.0 mph 72 % 0.00 in 186 W/m2
11:04 46.6 °F 38.0 °F 30.28 in ESE 1.0 mph 5.0 mph 72 % 0.00 in 192 W/m2
11:09 46.8 °F 38.6 °F 30.28 in ESE 1.0 mph 6.0 mph 73 % 0.00 in 199 W/m2
11:14 46.9 °F 38.4 °F 30.28 in ENE 1.0 mph 6.0 mph 72 % 0.00 in 197 W/m2
11:19 46.9 °F 38.4 °F 30.27 in ENE 2.0 mph 6.0 mph 72 % 0.00 in 211 W/m2
11:24 46.9 °F 38.0 °F 30.27 in ENE 2.0 mph 6.0 mph 71 % 0.00 in 234 W/m2
11:29 46.9 °F 38.0 °F 30.27 in ENE 2.0 mph 6.0 mph 71 % 0.00 in 251 W/m2
11:30 46.9 °F 37.7 °F 30.27 in ENE 2.0 mph 6.0 mph 70 % 0.00 in 257 W/m2
11:35 47.1 °F 38.2 °F 30.27 in ENE 2.0 mph 6.0 mph 71 % 0.00 in 237 W/m2
11:40 47.3 °F 38.0 °F 30.27 in NE 1.0 mph 5.0 mph 70 % 0.00 in 234 W/m2
11:45 47.5 °F 37.8 °F 30.27 in NE 1.0 mph 5.0 mph 69 % 0.00 in 216 W/m2
13:30 49.6 °F 38.3 °F 30.23 in NE 2.0 mph 7.0 mph 65 % 0.00 in 304 W/m2
13:35 49.6 °F 38.0 °F 30.22 in NE 2.0 mph 7.0 mph 64 % 0.00 in 292 W/m2
13:40 49.8 °F 38.5 °F 30.23 in NE 2.0 mph 6.0 mph 65 % 0.00 in 274 W/m2
13:45 49.8 °F 38.5 °F 30.22 in NE 1.0 mph 6.0 mph 65 % 0.00 in 278 W/m2
13:50 49.8 °F 38.9 °F 30.22 in NE 1.0 mph 6.0 mph 66 % 0.00 in 302 W/m2
13:55 50.0 °F 38.7 °F 30.21 in ESE 1.0 mph 6.0 mph 65 % 0.00 in 325 W/m2
14:00 49.8 °F 38.5 °F 30.21 in ESE 1.0 mph 6.0 mph 65 % 0.00 in 330 W/m2
14:05 49.8 °F 38.5 °F 30.21 in SE 1.0 mph 4.0 mph 65 % 0.00 in 373 W/m2
14:10 50.2 °F 38.9 °F 30.21 in South 1.0 mph 6.0 mph 65 % 0.00 in 408 W/m2
14:15 50.2 °F 38.5 °F 30.21 in South 3.0 mph 7.0 mph 64 % 0.00 in 376 W/m2
14:20 50.2 °F 38.5 °F 30.20 in South 4.0 mph 7.0 mph 64 % 0.00 in 554 W/m2
14:25 50.0 °F 38.3 °F 30.20 in South 3.0 mph 8.0 mph 64 % 0.00 in 374 W/m2
14:30 50.2 °F 38.5 °F 30.20 in South 1.0 mph 8.0 mph 64 % 0.00 in 454 W/m2
14:35 50.2 °F 38.5 °F 30.19 in South 1.0 mph 4.0 mph 64 % 0.00 in 466 W/m2
14:40 50.4 °F 38.2 °F 30.19 in South 1.0 mph 4.0 mph 63 % 0.00 in 541 W/m2
14:45 50.9 °F 38.7 °F 30.19 in SW 1.0 mph 5.0 mph 63 % 0.00 in 531 W/m2
14:50 51.6 °F 39.0 °F 30.18 in West 1.0 mph 5.0 mph 62 % 0.00 in 1071 W/m2
14:55 52.3 °F 39.7 °F 30.18 in SW 1.0 mph 5.0 mph 62 % 0.00 in 984 W/m2
15:00 52.7 °F 38.8 °F 30.18 in SSE 2.0 mph 6.0 mph 59 % 0.00 in 958 W/m2
15:01 52.7 °F 38.8 °F 30.18 in SSE 2.0 mph 6.0 mph 59 % 0.00 in 958 W/m2
15:06 53.1 °F 38.7 °F 30.17 in SE 3.0 mph 7.0 mph 58 % 0.00 in 889 W/m2
15:11 53.1 °F 38.7 °F 30.17 in SSE 3.0 mph 10.0 mph 58 % 0.00 in 867 W/m2
15:16 53.4 °F 39.0 °F 30.16 in SSW 2.0 mph 10.0 mph 58 % 0.00 in 905 W/m2
15:21 54.0 °F 39.1 °F 30.16 in SW 1.0 mph 7.0 mph 57 % 0.00 in 805 W/m2
15:26 54.1 °F 39.2 °F 30.16 in SSW 3.0 mph 9.0 mph 57 % 0.00 in 791 W/m2
15:31 53.8 °F 38.4 °F 30.15 in SSW 3.0 mph 9.0 mph 56 % 0.00 in 759 W/m2
15:36 53.8 °F 38.9 °F 30.15 in SSE 2.0 mph 7.0 mph 57 % 0.00 in 738 W/m2
15:41 53.6 °F 39.2 °F 30.15 in SE 2.0 mph 7.0 mph 58 % 0.00 in 722 W/m2
15:46 54.0 °F 38.6 °F 30.14 in SSE 1.0 mph 6.0 mph 56 % 0.00 in 703 W/m2
15:51 54.0 °F 38.6 °F 30.14 in SSE 1.0 mph 6.0 mph 56 % 0.00 in 686 W/m2
15:57 54.3 °F 39.4 °F 30.14 in South 1.0 mph 3.0 mph 57 % 0.00 in 684 W/m2
16:02 54.7 °F 39.7 °F 30.14 in SE 1.0 mph 7.0 mph 57 % 0.00 in 668 W/m2
16:07 54.5 °F 39.1 °F 30.13 in ESE 2.0 mph 7.0 mph 56 % 0.00 in 647 W/m2
16:12 54.3 °F 39.4 °F 30.13 in East 2.0 mph 7.0 mph 57 % 0.00 in 645 W/m2
16:17 54.7 °F 39.7 °F 30.13 in East 2.0 mph 7.0 mph 57 % 0.00 in 635 W/m2
16:22 54.9 °F 39.5 °F 30.12 in ESE 2.0 mph 8.0 mph 56 % 0.00 in 626 W/m2
16:27 54.1 °F 38.8 °F 30.12 in ESE 2.0 mph 8.0 mph 56 % 0.00 in 594 W/m2
16:32 53.6 °F 38.7 °F 30.12 in ENE 2.0 mph 6.0 mph 57 % 0.00 in 587 W/m2
16:35 53.6 °F 38.7 °F 30.12 in ENE 1.0 mph 5.0 mph 57 % 0.00 in 577 W/m2
16:40 54.1 °F 39.2 °F 30.11 in SE 1.0 mph 5.0 mph 57 % 0.00 in 564 W/m2
16:45 54.1 °F 38.8 °F 30.11 in ESE 2.0 mph 6.0 mph 56 % 0.00 in 559 W/m2
16:50 54.3 °F 38.9 °F 30.11 in East 2.0 mph 6.0 mph 56 % 0.00 in 541 W/m2
16:56 54.7 °F 39.3 °F 30.11 in East 2.0 mph 8.0 mph 56 % 0.00 in 527 W/m2
17:01 54.7 °F 39.7 °F 30.10 in East 3.0 mph 8.0 mph 57 % 0.00 in 513 W/m2
17:06 54.5 °F 39.6 °F 30.10 in ENE 2.0 mph 7.0 mph 57 % 0.00 in 499 W/m2
17:11 54.7 °F 39.7 °F 30.09 in NE 2.0 mph 7.0 mph 57 % 0.00 in 482 W/m2
17:16 54.9 °F 39.5 °F 30.09 in East 3.0 mph 8.0 mph 56 % 0.00 in 471 W/m2
17:21 54.7 °F 39.7 °F 30.09 in ESE 3.0 mph 8.0 mph 57 % 0.00 in 452 W/m2
17:26 54.7 °F 39.7 °F 30.09 in East 2.0 mph 6.0 mph 57 % 0.00 in 439 W/m2
17:31 54.7 °F 39.3 °F 30.09 in East 3.0 mph 10.0 mph 56 % 0.00 in 429 W/m2
17:36 54.9 °F 39.9 °F 30.08 in ESE 4.0 mph 10.0 mph 57 % 0.00 in 418 W/m2
17:41 54.9 °F 39.9 °F 30.08 in East 3.0 mph 8.0 mph 57 % 0.00 in 406 W/m2
17:46 55.0 °F 39.6 °F 30.08 in ESE 3.0 mph 7.0 mph 56 % 0.00 in 385 W/m2
17:51 55.2 °F 39.8 °F 30.08 in SE 3.0 mph 7.0 mph 56 % 0.00 in 373 W/m2
17:56 55.2 °F 39.3 °F 30.07 in SSE 2.0 mph 6.0 mph 55 % 0.00 in 360 W/m2
18:01 55.0 °F 39.2 °F 30.07 in SE 2.0 mph 7.0 mph 55 % 0.00 in 343 W/m2
18:06 54.9 °F 39.5 °F 30.07 in ESE 2.0 mph 7.0 mph 56 % 0.00 in 330 W/m2
18:11 54.9 °F 39.9 °F 30.07 in SE 3.0 mph 8.0 mph 57 % 0.00 in 322 W/m2
18:16 54.9 °F 39.9 °F 30.07 in SE 3.0 mph 8.0 mph 57 % 0.00 in 308 W/m2
18:21 54.9 °F 39.9 °F 30.06 in SSE 3.0 mph 9.0 mph 57 % 0.00 in 288 W/m2
18:26 54.7 °F 39.7 °F 30.06 in SSE 3.0 mph 9.0 mph 57 % 0.00 in 272 W/m2
18:31 54.5 °F 39.6 °F 30.06 in SSE 2.0 mph 6.0 mph 57 % 0.00 in 257 W/m2
18:36 54.5 °F 39.6 °F 30.05 in South 2.0 mph 8.0 mph 57 % 0.00 in 244 W/m2
18:41 54.3 °F 39.4 °F 30.05 in South 2.0 mph 8.0 mph 57 % 0.00 in 232 W/m2
18:46 54.3 °F 39.8 °F 30.05 in South 2.0 mph 7.0 mph 58 % 0.00 in 216 W/m2
18:51 54.5 °F 39.6 °F 30.05 in SSE 2.0 mph 7.0 mph 57 % 0.00 in 206 W/m2
18:56 54.1 °F 39.2 °F 30.04 in SSE 3.0 mph 7.0 mph 57 % 0.00 in 190 W/m2
19:01 54.3 °F 39.8 °F 30.04 in SE 2.0 mph 7.0 mph 58 % 0.00 in 178 W/m2
19:06 54.3 °F 39.8 °F 30.04 in SE 3.0 mph 6.0 mph 58 % 0.00 in 163 W/m2
19:11 54.1 °F 39.7 °F 30.04 in SE 3.0 mph 7.0 mph 58 % 0.00 in 153 W/m2
19:16 54.0 °F 39.5 °F 30.04 in SSE 3.0 mph 8.0 mph 58 % 0.00 in 141 W/m2
19:21 53.8 °F 39.3 °F 30.04 in SSE 4.0 mph 8.0 mph 58 % 0.00 in 128 W/m2
19:26 53.6 °F 39.2 °F 30.03 in SSE 5.0 mph 8.0 mph 58 % 0.00 in 116 W/m2
19:31 53.2 °F 39.3 °F 30.03 in SSE 4.0 mph 8.0 mph 59 % 0.00 in 105 W/m2
19:37 53.2 °F 39.3 °F 30.03 in SSE 3.0 mph 7.0 mph 59 % 0.00 in 93 W/m2
19:42 53.2 °F 39.7 °F 30.03 in SE 4.0 mph 8.0 mph 60 % 0.00 in 79 W/m2
19:47 53.1 °F 39.5 °F 30.03 in SE 4.0 mph 8.0 mph 60 % 0.00 in 69 W/m2
19:52 52.7 °F 39.6 °F 30.03 in SSE 4.0 mph 8.0 mph 61 % 0.00 in 56 W/m2
19:57 52.3 °F 39.3 °F 30.03 in SSE 4.0 mph 7.0 mph 61 % 0.00 in 32 W/m2
20:02 52.2 °F 39.5 °F 30.03 in SSE 3.0 mph 7.0 mph 62 % 0.00 in 28 W/m2
20:07 52.0 °F 39.4 °F 30.02 in SSE 2.0 mph 6.0 mph 62 % 0.00 in 25 W/m2
20:13 51.8 °F 39.6 °F 30.02 in SSE 2.0 mph 6.0 mph 63 % 0.00 in 23 W/m2
20:18 51.4 °F 39.3 °F 30.02 in South 1.0 mph 5.0 mph 63 % 0.00 in 21 W/m2
20:23 51.3 °F 39.5 °F 30.02 in SSE 1.0 mph 5.0 mph 64 % 0.00 in 18 W/m2
20:28 51.1 °F 39.7 °F 30.02 in SSE 1.0 mph 6.0 mph 65 % 0.00 in 14 W/m2
20:33 50.7 °F 39.4 °F 30.02 in SSE 2.0 mph 6.0 mph 65 % 0.00 in 12 W/m2
20:38 50.5 °F 39.6 °F 30.02 in SSE 2.0 mph 5.0 mph 66 % 0.00 in 9 W/m2
20:43 50.4 °F 39.4 °F 30.01 in SSE 2.0 mph 6.0 mph 66 % 0.00 in 7 W/m2
20:48 50.0 °F 39.5 °F 30.01 in SSE 2.0 mph 6.0 mph 67 % 0.00 in 5 W/m2
20:53 49.6 °F 39.5 °F 30.01 in SSE 2.0 mph 6.0 mph 68 % 0.00 in 5 W/m2
20:58 49.5 °F 39.3 °F 30.01 in SSE 1.0 mph 6.0 mph 68 % 0.00 in 0 W/m2
21:03 49.3 °F 39.5 °F 30.01 in SSE 1.0 mph 5.0 mph 69 % 0.00 in 0 W/m2
21:08 48.9 °F 39.2 °F 30.01 in SSE 2.0 mph 5.0 mph 69 % 0.00 in 0 W/m2
21:13 48.7 °F 39.4 °F 30.01 in SSE 2.0 mph 5.0 mph 70 % 0.00 in 0 W/m2
21:18 48.6 °F 39.2 °F 30.01 in SSE 1.0 mph 5.0 mph 70 % 0.00 in 0 W/m2
21:23 48.4 °F 39.4 °F 30.01 in SSE 1.0 mph 5.0 mph 71 % 0.00 in 0 W/m2
21:28 48.0 °F 39.1 °F 30.01 in South 1.0 mph 5.0 mph 71 % 0.00 in 0 W/m2
21:33 47.8 °F 39.2 °F 30.01 in South 1.0 mph 5.0 mph 72 % 0.00 in 0 W/m2
21:38 47.7 °F 39.1 °F 30.01 in South 1.0 mph 5.0 mph 72 % 0.00 in 0 W/m2
21:43 47.5 °F 38.9 °F 30.01 in Calm   2.0 mph 72 % 0.00 in 0 W/m2
21:48 47.3 °F 38.7 °F 30.00 in Calm   2.0 mph 72 % 0.00 in 0 W/m2
21:53 47.1 °F 38.9 °F 30.00 in Calm   2.0 mph 73 % 0.00 in 0 W/m2
21:58 46.9 °F 38.7 °F 30.00 in Calm   2.0 mph 73 % 0.00 in 0 W/m2
22:03 46.6 °F 38.4 °F 30.00 in Calm   2.0 mph 73 % 0.00 in 0 W/m2
22:08 46.2 °F 38.0 °F 30.00 in Calm     73 % 0.00 in 0 W/m2
22:13 45.9 °F 38.0 °F 30.00 in Calm   1.0 mph 74 % 0.00 in 0 W/m2
22:18 45.7 °F 38.2 °F 30.00 in Calm   1.0 mph 75 % 0.00 in 0 W/m2
22:23 45.7 °F 38.5 °F 30.00 in Calm   1.0 mph 76 % 0.00 in 0 W/m2
22:28 45.5 °F 38.4 °F 30.00 in Calm   2.0 mph 76 % 0.00 in 0 W/m2
22:34 45.3 °F 38.2 °F 30.00 in Calm   2.0 mph 76 % 0.00 in 0 W/m2
22:39 45.0 °F 38.2 °F 30.00 in Calm   2.0 mph 77 % 0.00 in 0 W/m2
22:44 44.6 °F 37.8 °F 29.99 in Calm   1.0 mph 77 % 0.00 in 0 W/m2
22:49 44.4 °F 38.0 °F 29.99 in Calm   1.0 mph 78 % 0.00 in 0 W/m2
22:54 44.2 °F 37.8 °F 29.99 in Calm   1.0 mph 78 % 0.00 in 0 W/m2
22:59 44.1 °F 37.6 °F 29.99 in Calm   1.0 mph 78 % 0.00 in 0 W/m2
23:04 44.1 °F 38.0 °F 29.99 in WSW 1.0 mph 5.0 mph 79 % 0.00 in 0 W/m2
23:09 44.2 °F 38.1 °F 29.99 in WSW 1.0 mph 5.0 mph 79 % 0.00 in 0 W/m2
23:14 44.2 °F 38.1 °F 29.99 in Calm   3.0 mph 79 % 0.00 in 0 W/m2
23:19 44.1 °F 38.0 °F 29.98 in Calm   3.0 mph 79 % 0.00 in 0 W/m2
23:24 43.9 °F 37.8 °F 29.98 in Calm     79 % 0.00 in 0 W/m2
23:29 43.5 °F 37.4 °F 29.98 in Calm     79 % 0.00 in 0 W/m2
23:34 43.3 °F 37.6 °F 29.98 in Calm     80 % 0.00 in 0 W/m2
23:39 43.0 °F 37.2 °F 29.98 in Calm     80 % 0.00 in 0 W/m2
23:44 42.8 °F 37.1 °F 29.98 in Calm     80 % 0.00 in 0 W/m2
23:49 42.4 °F 37.0 °F 29.98 in Calm     81 % 0.00 in 0 W/m2
23:54 42.3 °F 37.2 °F 29.98 in Calm     82 % 0.00 in 0 W/m2
23:59 42.1 °F 37.0 °F 29.98 in Calm     82 % 0.00 in 0 W/m2
Delerius-Weather
Compliments of Weather Underground - 2.25 mb

Data updates at regular intervals.